Brady, TX

7:16 PM CST on February 17, 2018 (GMT -0600)
Curtis

Weather History for KBBD - January, 2014

Change the Weather History Date:

Wednesday, January 8, 2014

  Actual Average (KJCT) Record (KJCT)
Temperature  
Mean Temperature 50 °F -  
Max Temperature 60 °F 59 °F 84 °F (2006)
Min Temperature 39 °F 31 °F 18 °F (2017)
Degree Days  
Heating Degree Days 16    
Moisture  
Dew Point 40 °F    
Average Humidity 77    
Maximum Humidity 100    
Minimum Humidity 52    
Precipitation  
Precipitation 0.00 in - - ()
Sea Level Pressure  
Sea Level Pressure 30.10 in    
Wind  
Wind Speed 13 mph (South)    
Max Wind Speed 23 mph    
Max Gust Speed 31 mph    
Visibility 10 miles    
Events      
Averages and records for this station are not official NWS values.
T = Trace of Precipitation, MM = Missing Value Source: NWS Daily Summary

Daily Weather History Graph

Daily Weather History Graph

Search for Another Location

Airport or City:

Trip Planner

Search our weather history database for the weather conditions in past years. The results will help you decide how hot, cold, wet, or windy it might be!

Date:

Astronomy

Jan. 08, 2014 Rise Set
Actual Time 7:36 AM CST 5:51 PM CST
Civil Twilight 7:10 AM CST 6:17 PM CST
Nautical Twilight 6:40 AM CST 6:47 PM CST
Astronomical Twilight 6:11 AM CST 7:17 PM CST
Moon 12:33 PM CST (1/8) 12:57 AM CST (1/8)
Length of Visible Light 11h 07m
Length of Day
10h 14m
First Quarter, 56% of the Moon is Illuminated
Jan 8
First Quarter
Jan 15
Full
Jan 23
Last Quarter
Jan 30
New
Feb 6
First Quarter

Hourly Weather History & Observations

Time (CST) Temp. Windchill Dew Point Humidity Pressure Visibility Wind Dir Wind Speed Gust Speed Precip Events Conditions
12:15 AM 39.2 °F 30.5 °F 28.4 °F 65% 30.19 in 10.0 mi South 16.1 mph - N/A   Overcast
12:35 AM 39.2 °F 30.8 °F 28.4 °F 65% 30.19 in 10.0 mi South 15.0 mph - N/A   Overcast
12:55 AM 39.2 °F 30.5 °F 30.2 °F 70% 30.18 in 10.0 mi South 16.1 mph - N/A   Overcast
1:15 AM 39.2 °F 30.5 °F 30.2 °F 70% 30.17 in 10.0 mi South 16.1 mph - N/A   Overcast
1:35 AM 39.2 °F 30.2 °F 30.2 °F 70% 30.16 in 10.0 mi South 17.3 mph - N/A   Overcast
1:55 AM 39.2 °F 32.5 °F 30.2 °F 70% 30.16 in 10.0 mi SSE 10.4 mph - N/A   Overcast
2:15 AM 39.2 °F 32.5 °F 32.0 °F 75% 30.16 in 10.0 mi SSE 10.4 mph - N/A   Overcast
2:35 AM 39.2 °F 32.5 °F 32.0 °F 75% 30.15 in 10.0 mi South 10.4 mph - N/A   Overcast
2:55 AM 39.2 °F 33.6 °F 33.8 °F 81% 30.16 in 10.0 mi SSE 8.1 mph - N/A   Overcast
3:15 AM 39.2 °F 32.5 °F 33.8 °F 81% 30.15 in 10.0 mi South 10.4 mph - N/A   Overcast
3:35 AM 39.2 °F 33.6 °F 33.8 °F 81% 30.15 in 10.0 mi South 8.1 mph - N/A   Overcast
3:55 AM 39.2 °F 32.0 °F 33.8 °F 81% 30.13 in 10.0 mi South 11.5 mph - N/A   Overcast
4:15 AM 39.2 °F 31.6 °F 33.8 °F 81% 30.13 in 10.0 mi South 12.7 mph - N/A   Overcast
4:35 AM 39.2 °F 33.0 °F 33.8 °F 81% 30.14 in 10.0 mi South 9.2 mph - N/A   Overcast
4:55 AM 39.2 °F 31.6 °F 35.6 °F 87% 30.13 in 10.0 mi South 12.7 mph - N/A   Overcast
5:15 AM 39.2 °F 31.2 °F 35.6 °F 87% 30.10 in 10.0 mi SSE 13.8 mph - N/A   Overcast
5:35 AM 39.2 °F 32.0 °F 35.6 °F 87% 30.10 in 10.0 mi SSE 11.5 mph - N/A   Overcast
5:55 AM 39.2 °F 32.0 °F 35.6 °F 87% 30.11 in 10.0 mi South 11.5 mph - N/A   Overcast
6:15 AM 39.2 °F 33.0 °F 35.6 °F 87% 30.11 in 10.0 mi South 9.2 mph - N/A   Overcast
6:35 AM 39.2 °F 33.6 °F 37.4 °F 93% 30.11 in 10.0 mi South 8.1 mph - N/A   Overcast
6:55 AM 41.0 °F 36.4 °F 37.4 °F 87% 30.11 in 10.0 mi South 6.9 mph - N/A   Overcast
7:15 AM 41.0 °F 34.3 °F 37.4 °F 87% 30.11 in 10.0 mi South 11.5 mph - N/A   Overcast
7:35 AM 42.8 °F 37.0 °F 39.2 °F 87% 30.11 in 10.0 mi South 10.4 mph - N/A   Overcast
7:55 AM 42.8 °F 37.0 °F 39.2 °F 87% 30.12 in 10.0 mi South 10.4 mph - N/A   Overcast
8:15 AM 42.8 °F 36.2 °F 39.2 °F 87% 30.12 in 10.0 mi South 12.7 mph - N/A   Overcast
8:35 AM 44.6 °F 37.4 °F 41.0 °F 87% 30.12 in 10.0 mi South 16.1 mph - N/A   Overcast
8:55 AM 44.6 °F 38.8 °F 41.0 °F 87% 30.12 in 10.0 mi South 11.5 mph - N/A   Overcast
9:15 AM 46.4 °F 40.7 °F 42.8 °F 87% 30.13 in 10.0 mi South 12.7 mph - N/A   Overcast
9:35 AM 48.2 °F - 42.8 °F 82% 30.13 in 10.0 mi South 18.4 mph - N/A   Overcast
9:55 AM 48.2 °F - 42.8 °F 82% 30.14 in 10.0 mi South 17.3 mph - N/A   Overcast
10:15 AM 48.2 °F - 42.8 °F 82% 30.13 in 10.0 mi South 21.9 mph 31.1 mph N/A   Overcast
10:35 AM 51.8 °F - 42.8 °F 71% 30.13 in 10.0 mi South 20.7 mph - N/A   Overcast
10:55 AM 51.8 °F - 42.8 °F 71% 30.12 in 10.0 mi South 20.7 mph - N/A   Overcast
11:15 AM 51.8 °F - 42.8 °F 71% 30.11 in 10.0 mi South 20.7 mph - N/A   Mostly Cloudy
11:35 AM 51.8 °F - 42.8 °F 71% 30.10 in 10.0 mi South 23.0 mph - N/A   Partly Cloudy
11:55 AM 53.6 °F - 42.8 °F 67% 30.08 in 10.0 mi South 21.9 mph - N/A   Clear
12:15 PM 55.4 °F - 42.8 °F 63% 30.08 in 10.0 mi South 21.9 mph - N/A   Partly Cloudy
12:35 PM 55.4 °F - 42.8 °F 63% 30.06 in 10.0 mi South 17.3 mph - N/A   Clear
12:55 PM 55.4 °F - 42.8 °F 63% 30.06 in 10.0 mi South 17.3 mph - N/A   Clear
1:15 PM 57.2 °F - 42.8 °F 59% 30.05 in 10.0 mi South 18.4 mph - N/A   Clear
1:35 PM 57.2 °F - 42.8 °F 59% 30.04 in 10.0 mi South 16.1 mph - N/A   Clear
1:55 PM 57.2 °F - 42.8 °F 59% 30.03 in 10.0 mi South 13.8 mph - N/A   Clear
2:15 PM 57.2 °F - 42.8 °F 59% 30.03 in 10.0 mi South 12.7 mph - N/A   Clear
2:35 PM 59.0 °F - 44.6 °F 59% 30.02 in 10.0 mi South 11.5 mph - N/A   Clear
2:55 PM 60.8 °F - 42.8 °F 52% 30.02 in 10.0 mi South 11.5 mph - N/A   Clear
3:15 PM 60.8 °F - 42.8 °F 52% 30.02 in 10.0 mi South 17.3 mph - N/A   Clear
3:35 PM 60.8 °F - 42.8 °F 52% 30.02 in 10.0 mi South 11.5 mph - N/A   Clear
3:55 PM 57.2 °F - 42.8 °F 59% 30.02 in 10.0 mi South 11.5 mph - N/A   Clear
4:15 PM 57.2 °F - 42.8 °F 59% 30.03 in 10.0 mi South 10.4 mph - N/A   Clear
4:35 PM 57.2 °F - 44.6 °F 63% 30.03 in 10.0 mi South 10.4 mph - N/A   Clear
4:55 PM 57.2 °F - 44.6 °F 63% 30.03 in 10.0 mi South 9.2 mph - N/A   Clear
5:15 PM 55.4 °F - 44.6 °F 67% 30.02 in 10.0 mi South 8.1 mph - N/A   Clear
5:35 PM 55.4 °F - 44.6 °F 67% 30.03 in 10.0 mi South 8.1 mph - N/A   Clear
5:55 PM 53.6 °F - 44.6 °F 72% 30.03 in 10.0 mi SSE 8.1 mph - N/A   Clear
6:15 PM 53.6 °F - 44.6 °F 72% 30.04 in 10.0 mi SSE 8.1 mph - N/A   Clear
6:35 PM 51.8 °F - 44.6 °F 76% 30.04 in 10.0 mi SSE 8.1 mph - N/A   Clear
6:55 PM 51.8 °F - 44.6 °F 76% 30.05 in 10.0 mi SSE 8.1 mph - N/A   Clear
7:15 PM 50.0 °F - 44.6 °F 82% 30.06 in 10.0 mi SSE 6.9 mph - N/A   Clear
7:35 PM 50.0 °F - 44.6 °F 82% 30.06 in 10.0 mi SSE 8.1 mph - N/A   Clear
7:55 PM 48.2 °F - 44.6 °F 87% 30.07 in 10.0 mi SSE 5.8 mph - N/A   Clear
8:15 PM 48.2 °F - 44.6 °F 87% 30.08 in 10.0 mi South 4.6 mph - N/A   Clear
8:35 PM 48.2 °F - 44.6 °F 87% 30.10 in 10.0 mi South 5.8 mph - N/A   Clear
8:55 PM 48.2 °F - 44.6 °F 87% 30.10 in 10.0 mi South 3.5 mph - N/A   Clear
9:15 PM 46.4 °F 45.2 °F 44.6 °F 93% 30.11 in 10.0 mi SSE 3.5 mph - N/A   Clear
9:35 PM 46.4 °F 44.3 °F 44.6 °F 93% 30.11 in 10.0 mi South 4.6 mph - N/A   Clear
9:55 PM 46.4 °F 43.5 °F 44.6 °F 93% 30.11 in 10.0 mi South 5.8 mph - N/A   Clear
10:15 PM 46.4 °F 43.5 °F 44.6 °F 93% 30.11 in 10.0 mi South 5.8 mph - N/A   Clear
10:35 PM 46.4 °F 43.5 °F 44.6 °F 93% 30.11 in 10.0 mi South 5.8 mph - N/A   Clear
10:55 PM 46.4 °F 42.4 °F 44.6 °F 93% 30.11 in 10.0 mi South 8.1 mph - N/A   Clear
11:15 PM 44.6 °F 41.4 °F 44.6 °F 100% 30.11 in 10.0 mi South 5.8 mph - N/A   Clear
11:35 PM 44.6 °F 40.7 °F 44.6 °F 100% 30.10 in 10.0 mi SSE 6.9 mph - N/A   Clear
11:55 PM 44.6 °F 41.4 °F 44.6 °F 100% 30.09 in 10.0 mi SSE 5.8 mph - N/A   Clear